Skip Navigation Links weather.gov 
NOAA logo-Select to go to the NOAA homepage NDBC Title GraphicClick to go to NDBC home page   Select to go to the NWS homepage
Home About Us Contact Us
 
 
    
    Station List

 Data Access
    Mobile Access
    Classic Maps
         Recent
         DART®
    Obs Search
    Ship Obs Report
    BuoyCAMs
    TAO
    DODS
    OceanSITES
    HF Radar
    OSMC
    Dial-A-Buoy
    RSS Feeds Image indicating link to RSS feed access page
    Web Widget
    Web Data Guide
    Maintenance Schedule
    Station Status Report

 Program Info
    TAO
    DART®
    IOOS®

 Publications
    NDBC PEA
    NDBC FONSI
    NDBC DQC Handbook

 Visitor Information
 
USA.gov is the U.S. government's official web portal to all federal, state and local government web resources and services.

Station YKRV2 - 8637611 - York River East Rear Range Light, VA Image indicating link to RSS feed of recent meteorological observations for station YKRV2

Large icon indicates selected station.
yellow diamond Stations with recent data
red diamond Stations with no data in last 8 hours
     (24 hours for tsunami stations)


Conditions at YKRV2 as of
(8:30 pm EDT on 04/09/2020)
0030 GMT on 04/10/2020:
     

Click on the graph icon in the table below to see a time series plot of the last five days of that observation.

5-day plot - Wind Direction Wind Direction (WDIR): N ( 10 deg true )
5-day plot - Wind Speed Wind Speed (WSPD): 21 kts
5-day plot - Wind Gust Wind Gust (GST): 25 kts
5-day plot - Atmospheric Pressure Atmospheric Pressure (PRES): 29.45 in
5-day plot - Air Temperature Air Temperature (ATMP): 59.5 °F
5-day plot - Wind Speed at 10 Meters Wind Speed at 10 meters (WSPD10M): 23 kts
5-day plot - Wind Speed at 10 Meters Wind Speed at 20 meters (WSPD20M): 25 kts
5-day plot - Wind Speed, Wind Gust and Atmospheric Pressure Combined plot of Wind Speed, Gust, and Air Pressure
NOS Water Level Observation Network Water Level
Previous observations
5-day plot - Wind Direction 5-day plot - Wind Speed 5-day plot - Wind Gust 5-day plot - Wave Height 5-day plot - Dominant Wave Period 5-day plot - Average Period 5-day plot - Mean Wave Direction 5-day plot - Atmospheric Pressure 5-day plot - Pressure Tendency 5-day plot - Air Temperature 5-day plot - Water Temperature 5-day plot - Dew Point 5-day plot - Salinity 5-day plot - Visibility 5-day plot - Tide (above MLLW)
MM DD TIME
(EDT)
WDIR WSPD
kts
GST
kts
WVHT
ft
DPD
sec
APD
sec
MWD PRES
in
PTDY
in
ATMP
°F
WTMP
°F
DEWP
°F
SAL
psu
VIS
nmi
TIDE
ft
0409 8:24 pm N 22 27----29.45- 59.9-----
0409 8:06 pm N 22 24----29.44- 60.6-----
0409 8:00 pm N 23 27----29.43+0.11 60.6-----
0409 7:54 pm N 25 28----29.43- 61.0-----
0409 7:48 pm N 24 29----29.43- 61.9-----
0409 7:42 pm N 23 26----29.43- 62.2-----
0409 7:36 pm N 24 27----29.42- 63.0-----
0409 7:30 pm N 24 28----29.41- 63.7-----
0409 7:24 pm N 22 26----29.41- 65.8-----
0409 7:18 pmNNW 20 24----29.41- 67.8-----
0409 7:12 pmNNW 19 23----29.41- 67.3-----
0409 7:06 pmNNW 20 23----29.40- 68.5-----
0409 7:00 pmNNW 21 24----29.40+0.07 68.7-----
0409 6:54 pmNNW 17 19----29.40- 68.9-----
0409 6:48 pmNNW 19 20----29.40- 69.1-----
0409 6:42 pmNNW 18 21----29.39- 69.6-----
0409 6:36 pmNNW 23 26----29.39- 70.0-----
0409 6:30 pm N 23 26----29.38- 70.0-----
0409 6:24 pmNNW 19 23----29.37- 69.6-----
0409 6:18 pmNNW 22 25----29.37- 70.7-----
0409 6:12 pmNNW 24 27----29.36- 70.2-----
0409 6:06 pmNNW 20 22----29.36- 69.8-----
0409 6:00 pm N 19 23----29.34+0.02 70.3-----
0409 5:54 pmNNW 17 21----29.35- 70.7-----
0409 5:48 pmWNW 21 25----29.35- 72.5-----
0409 5:42 pmWNW 22 28----29.34- 74.1-----
0409 5:36 pmWNW 19 25----29.34- 73.8-----
0409 5:30 pmWNW 18 21----29.33- 72.3-----
0409 5:24 pmWNW 18 20----29.33- 72.3-----
0409 5:18 pmWNW 19 25----29.33- 73.4-----
0409 5:12 pm NW 20 25----29.34- 72.9-----
0409 5:06 pmWNW 22 26----29.33- 73.2-----
0409 5:00 pmWNW 21 26----29.32-0.01 72.7-----
0409 4:54 pmWNW 23 26----29.32- 73.4-----
0409 4:48 pm W 25 32----29.31- 73.4-----
0409 4:42 pmWNW 27 30----29.32- 73.2-----
0409 4:36 pmWNW 25 29----29.32- 73.8-----
0409 4:30 pmWNW 28 32----29.31- 73.0-----
0409 4:24 pmWNW 26 32----29.31- 73.4-----
0409 4:18 pmWNW 25 29----29.31- 73.0-----
0409 4:12 pmWNW 23 26----29.32- 71.2-----
0409 4:06 pm W 25 31----29.32- 71.8-----
0409 4:00 pm W 23 26----29.32-0.02 71.2-----
0409 3:54 pm W 26 32----29.32- 72.9-----
0409 3:48 pm W 25 30----29.32- 70.9-----
0409 3:42 pm W 26 31----29.32- 70.9-----
0409 3:36 pm W 28 32----29.32- 72.1-----
0409 3:30 pm W 31 36----29.31- 72.3-----
0409 3:24 pm W 29 35----29.32- 72.1-----
0409 3:18 pm W 26 32----29.33- 71.1-----
0409 3:12 pmWNW 30 37----29.31- 72.7-----
0409 3:06 pm W 29 33----29.32- 72.0-----
0409 3:00 pm W 27 32----29.32-0.06 71.2-----
0409 2:54 pm W 28 31----29.32- 70.7-----
0409 2:48 pm W 26 32----29.32- 71.2-----
0409 2:42 pm W 29 39----29.32- 72.3-----
0409 2:36 pm W 33 42----29.31- 72.3-----
0409 2:30 pm W 32 36----29.32- 71.4-----
0409 2:24 pm W 29 36----29.32- 70.9-----
0409 2:18 pm W 25 30----29.33- 69.6-----
0409 2:12 pm W 27 33----29.34- 70.3-----
0409 2:06 pm W 24 29----29.34- 68.9-----
0409 2:00 pm W 25 27----29.34-0.08 69.3-----
0409 1:54 pm W 28 34----29.33- 70.2-----
0409 1:48 pm W 29 36----29.34- 70.3-----
0409 1:42 pm W 27 33----29.34- 68.9-----
0409 1:36 pm W 29 33----29.34- 69.8-----
0409 1:30 pm W 26 30----29.34- 69.1-----
0409 1:24 pm W 27 31----29.34- 69.1-----
0409 1:18 pm W 28 32----29.34- 69.4-----
0409 1:12 pm W 28 34----29.34- 69.1-----
0409 1:06 pm W 26 31----29.34- 68.9-----
0409 1:00 pm W 30 35----29.34-0.09 69.3-----
040912:54 pm W 26 31----29.35- 68.2-----
040912:48 pm W 26 32----29.35- 68.2-----
040912:42 pm W 23 28----29.36- 68.9-----
040912:36 pm W 26 31----29.36- 69.1-----
040912:30 pm W 26 29----29.36- 68.5-----
040912:24 pm W 27 32----29.36- 68.5-----
040912:18 pm W 24 28----29.37- 69.1-----
040912:12 pm W 22 25----29.37- 68.7-----
040912:06 pm W 23 27----29.37- 69.3-----
040912:00 pm W 21 25----29.38-0.11 69.3-----
040911:54 am W 18 20----29.38- 68.5-----
040911:48 am W 17 20----29.39- 68.2-----
040911:42 amWSW 17 19----29.39- 67.5-----
040911:36 amWSW 17 20----29.39- 67.3-----
040911:30 amWSW 19 22----29.39- 67.1-----
040911:24 amWSW 17 21----29.40- 67.6-----
040911:18 am W 20 22----29.40- 67.8-----
040911:12 am W 19 25----29.41- 67.8-----
040911:06 am W 16 23----29.41- 67.3-----
040911:00 am W 7 14----29.42-0.11 64.2-----
040910:54 am W 7 8----29.42- 63.0-----
040910:48 amWSW 7 8----29.42- 62.4-----
040910:42 am W 8 9----29.42- 62.2-----
040910:36 am W 9 10----29.42- 62.2-----
040910:30 am W 11 12----29.43- 62.1-----
040910:24 am W 12 13----29.43- 61.9-----
040910:18 am W 12 12----29.43- 62.1-----
040910:12 am W 13 14----29.43- 62.1-----
040910:06 amWSW 14 14----29.43- 61.9-----
040910:00 amWSW 14 17----29.43-0.10 61.0-----
0409 9:54 am SW 17 18----29.42- 60.6-----
0409 9:48 am SW 15 17----29.42- 60.1-----
0409 9:42 amSSW 13 17----29.42- 59.5-----
0409 9:36 amSSW 13 15----29.42- 59.0-----
0409 9:30 am S 6 7----29.43- 59.0-----
0409 9:24 amSSE 10 11----29.41- 59.2-----
0409 9:18 am SE 9 10----29.42- 59.4-----
0409 9:12 am W 2 4----29.46- 59.7-----
0409 9:06 am W 6 7----29.48- 59.9-----
0409 9:00 am W 8 10----29.49+0.00 59.9-----
0409 8:54 amWNW 10 13----29.50- 60.1-----
0409 8:48 amWNW 15 17----29.52- 60.4-----
0409 8:42 amWNW 19 23----29.52- 61.3-----
0409 8:36 amWNW 19 22----29.52- 61.2-----
0409 8:30 am NW 21 24----29.53- 61.3-----
0409 8:24 amWNW 19 23----29.53- 61.2-----
0409 8:18 amWNW 20 25----29.54- 61.3-----
0409 8:12 amWNW 20 25----29.54- 62.1-----
0409 8:06 amWNW 22 26----29.53- 62.6-----
0409 8:00 amWNW 19 23----29.53+0.02 62.4-----
0409 7:54 am NW 17 22----29.54- 62.2-----
0409 7:48 amWNW 15 18----29.54- 61.9-----
0409 7:42 am NW 16 18----29.54- 61.9-----
0409 7:36 amWNW 16 18----29.54- 62.1-----
0409 7:30 amWNW 18 21----29.54- 62.2-----
0409 7:24 amWNW 19 23----29.54- 62.2-----
0409 7:18 amWNW 19 22----29.54- 62.1-----
0409 7:12 amWNW 18 20----29.54- 61.9-----
0409 7:06 amWNW 17 22----29.53- 61.3-----
0409 7:00 amWNW 14 18----29.53+0.00 60.6-----
0409 6:54 am W 14 17----29.53- 61.2-----
0409 6:48 am W 11 12----29.51- 61.7-----
0409 6:42 am W 10 13----29.50- 61.7-----
0409 6:36 am W 10 13----29.49- 60.6-----
0409 6:30 am W 8 9----29.49- 60.6-----
0409 6:24 am W 8 9----29.49- 60.8-----
0409 6:18 am W 8 10----29.49- 60.8-----
0409 6:12 am W 8 9----29.49- 61.0-----
0409 6:06 am W 8 9----29.49- 61.2-----
0409 6:00 am W 9 10----29.49-0.07 61.0-----
0409 5:54 am W 9 10----29.49- 60.8-----
0409 5:48 am W 9 11----29.50- 60.6-----
0409 5:42 amWSW 9 10----29.50- 60.8-----
0409 5:36 amWSW 8 9----29.50- 61.0-----
0409 5:30 amWSW 8 10----29.50- 61.0-----
0409 5:24 am SW 7 8----29.50- 60.8-----
0409 5:18 am SW 8 10----29.50- 61.2-----
0409 5:12 am SW 9 11----29.50- 61.0-----
0409 5:06 amSSW 10 11----29.50- 60.6-----
0409 5:00 amSSW 9 10----29.51-0.07 60.8-----
0409 4:54 amSSW 8 9----29.51- 60.4-----
0409 4:48 amSSW 7 8----29.52- 60.6-----
0409 4:42 amSSW 7 8----29.52- 60.8-----
0409 4:36 amSSW 8 9----29.53- 61.2-----
0409 4:30 amSSW 9 10----29.53- 60.6-----
0409 4:24 am SW 10 10----29.53- 60.4-----
0409 4:18 am SW 9 10----29.54- 61.0-----
0409 4:12 amSSW 9 10----29.54- 60.6-----
0409 4:06 amSSW 8 8----29.54- 60.8-----
0409 4:00 amSSW 8 8----29.54-0.06 60.4-----
0409 3:54 am S 8 8----29.54- 59.7-----
0409 3:48 am S 8 8----29.55- 59.9-----
0409 3:42 am S 7 7----29.55- 59.9-----
0409 3:36 am S 7 7----29.55- 59.7-----
0409 3:30 am S 7 8----29.56- 59.9-----
0409 3:24 am S 5 6----29.56- 59.5-----
0409 3:18 am S 7 7----29.56- 60.3-----
0409 3:12 am S 7 7----29.56- 60.8-----
0409 3:06 am S 8 8----29.56- 61.2-----
0409 3:00 am S 10 11----29.56-0.06 61.0-----
0409 2:54 am S 10 11----29.56- 61.0-----
0409 2:48 am S 10 10----29.56- 60.8-----
0409 2:42 am S 10 12----29.57- 61.5-----
0409 2:36 am S 12 12----29.57- 61.7-----
0409 2:30 am S 11 12----29.57- 61.9-----
0409 2:24 am S 10 12----29.57- 61.5-----
0409 2:18 am S 10 12----29.57- 61.5-----
0409 2:12 am S 12 12----29.58- 61.9-----
0409 2:06 am S 12 12----29.58- 61.3-----
0409 2:00 am S 12 13----29.58-0.06 61.3-----
0409 1:54 am S 13 13----29.58- 61.5-----
0409 1:48 am S 13 13----29.58-------
0409 1:36 am S 14 15----29.58-------
0409 1:30 am S 15 15----29.59- 61.7-----
0409 1:24 am S 14 14----29.59- 61.7-----
0409 1:18 am S 13 13----29.59- 61.5-----
0409 1:12 am S 14 14----29.59- 61.9-----
0409 1:06 am S 13 14----29.59- 61.7-----
0409 1:00 am S 13 14----29.59-0.07 61.7-----
040912:54 am S 13 14----29.60- 61.3-----
040912:48 am S 11 12----29.60- 61.3-----
040912:42 am S 11 12----29.61- 61.5-----
040912:36 am S 11 13----29.61- 62.8-----
040912:30 am S 13 14----29.61- 62.4-----
040912:24 am S 15 16----29.61- 62.2-----
040912:18 am S 13 14----29.62- 61.5-----
040912:12 am S 13 14----29.62- 61.2-----
040912:06 am S 13 13----29.62- 60.6-----
040912:00 am S 13 13----29.62-0.03 60.4-----
040811:54 pm S 13 14----29.62- 60.4-----
040811:48 pm S 13 13----29.63- 60.4-----
040811:42 pm S 13 13----29.63- 60.3-----
040811:36 pm S 12 13----29.63- 59.9-----
040811:30 pm S 12 12----29.64- 60.3-----
040811:24 pm S 12 12----29.64- 60.3-----
040811:18 pm S 12 13----29.64- 59.9-----
040811:12 pm S 12 13----29.64- 59.7-----
040811:06 pmSSE 11 11----29.64- 59.7-----
040811:00 pmSSE 11 12----29.64+0.00 59.5-----
040810:54 pmSSE 10 11----29.65- 59.5-----
040810:48 pmSSE 11 12----29.65- 59.7-----
040810:42 pmSSE 9 11----29.65- 59.4-----
040810:36 pmSSE 8 10----29.66- 59.5-----
040810:30 pm SE 8 9----29.66- 59.4-----
040810:24 pm E 7 9----29.66- 59.5-----
040810:18 pmSSE 10 11----29.66- 60.3-----
040810:12 pmSSE 10 11----29.67- 60.4-----
040810:06 pmSSE 9 9----29.67- 60.4-----
040810:00 pmSSE 9 10----29.66+0.05 60.8-----
0408 9:54 pmSSE 9 10----29.67- 60.8-----
0408 9:48 pmSSE 8 8----29.67- 61.3-----
0408 9:42 pm SE 6 6----29.67- 61.9-----
0408 9:36 pmESE 4 5----29.67- 62.4-----
0408 9:30 pm E 6 10----29.67- 62.4-----
0408 9:24 pm SE 5 7----29.67- 62.6-----
0408 9:18 pmSSE 7 7----29.66- 62.4-----
0408 9:12 pmSSE 7 7----29.66- 64.0-----
0408 9:06 pm SE 6 9----29.65- 64.0-----
0408 9:00 pmSSE 5 7----29.65+0.06 63.9-----
0408 8:54 pmSSE 8 9----29.65- 65.8-----

Description of Measurements

Links which are specific to this station are listed below:

Real Time Data in tabular form for the last forty-five days.

Historical Data & Climatic Summaries for quality controlled data for the current month, previous months, and previous years.